Find Starlink 11178

NORAD ID: 62465 Int'l Des: 2024-254 Owner: SPXS Country: US Constellation: starlink operational
LEOCIRCULAR

現在のビュー

3D地球を読み込み中...

About Starlink 11178

Starlink 11178 (NORAD 62465) is a starlink constellation satellite (v2 mini d2c) launched Dec 31, 2024 by SPXS of US. It operates in LEO, CIRCULAR orbit with a mass of 960.00 kg.

Starlink 11178について

説明を読み込み中...

次回通過

Passes for default location (London). Set your location on the main map for personalized predictions.

高度履歴

Loading altitude history...

軌道要素

1 62465U 24254D 26167.53039831 .00133724 00000-0 10273-2 0 9999
2 62465 43.0007 347.4419 0002505 270.4704 89.5877 15.70877383 84787
Epoch: Jun 16, 2026 • Age: 13 hours

現在のステータス

高度 360.8 km
速度 7.70 km/s
衛星直下点 43.09°N, 153.12°E
打ち上げ日 Dec 31, 2024
運用期間 1.4 years
タイプ internet

技術仕様

分類 Payload
質量 960.00 kg
乾燥質量 910.00 kg
総質量 960.00 kg
長さ 0.30 m
直径 4.10 m
スパン 29.00 m
形状 Box + pan
製造者 SPXS
バスタイプ Starlink V2MD
フェーズステータス In Orbit
所有者/国 SPXS/US

Most Searched